COSMOS 2251 DEB, 35462

Orbit data source: Space-Track

COSMOS 2251 DEB, 35462 is space debris in LEO originally from a launch on Wed, 16 Jun 1993 UTC launched from the Plesetsk Missile And Space Complex (PKMTR). The debris from Iridium 33, an American commercial communications satellite, has been tracked extensively since its accidental collision with the defunct Russian satellite Cosmos 2251 in 2009. This event, occurring at high speed in low Earth orbit (LEO), generated thousands of pieces of space debris, significantly increasing the risk of further collisions. The Iridium 33 debris cloud has impacted space traffic management and orbital debris mitigation strategies, making it a subject of ongoing study in space situational awareness.

Loading next visibility...
Identifier
35462, 1993-036ALG
Orbit
LEO
Country
Flag of CISCIS
Related business
Manufacturer
Unknown
Mission
Spacecraft
Bus & Motor
Unknown
Mass
Unknown
Launch date (UTC)
1993-06-16 (33 years ago)
Launch vehicle
Unknown
Launch site
Plesetsk Missile And Space Complex (PKMTR)
Object type
Payload
Rocket body
Debris
Shape & HBR
Unknown shape, 0.1 m
Radar Cross Section
Small (<0.1 m²)

Expand to show TLE details & history
Last TLE update: 1 day ago

TLE from 1 day ago
0 COSMOS 2251 DEB
1 35462U 93036ALG 26071.76113275  .00002870  00000-0  10794-2 0  9999
2 35462  74.0348 105.0859 0082127 120.1481 240.7840 14.30108182676678
Epoch: 2026-03-12T18:16Z
TLE epoch observation values (Epoch: 2026-03-12T18:16:01.869Z)
Latitude
0.00002°
Longitude
20.67173°
Altitude
823.085 km
Speed
7.427 km/s
True Right ascension
07h 00m 20s
True Declination
0° 00' 00"
Sunlit
Object was in daylight at epoch
Visualization orbit readout
Latitude
Unknown
Longitude
Unknown
Altitude
Unknown
Speed
Unknown
Apparent Right ascension
Unknown
Apparent Declination
Unknown
Sunlit
N/A
Visualization observer readout
Local Sidereal Time
09:43:22
Azimuth
Unknown
Elevation
Unknown
Doppler factor
Unknown
Orbital elements
Apogee altitude
847.861 km
Perigee altitude
730.138 km
Semi-major axis
7,167.137 km
Eccentricity
0.00821
Inclination
74.0348°
RAAN
105.0859°
Arg. of periapsis
120.1481°
True anomaly
239.96674°
Mean anomaly
240.784°
Eccentric anomaly
240.37496°
Mean motion
3.57705 °/min
Orbital period
100.64 mins
BSTAR
0.0010794

Documentation

Showing up to 5 results
|